Wind_Speed
42 41 40 39 38 37 36 37 38 39 40 41 42 43 44 46 48 49 50 51 54 57 60 62 64 67 70 71 72 74 75 77 77 77 82 87 93 99 105 109 110 107 100
42 40 40 39 38 37 37 37 38 39 40 41 42 43 45 47 48 49 51 54 57 60 62 65 67 69 70 72 73 75 76 79 81 83 88 95 101 107 108 105 97 86 74
41 39 39 39 38 38 38 38 39 39 40 41 42 44 46 47 48 51 54 57 60 62 64 66 68 69 71 73 74 76 79 83 88 93 97 102 105 105 98 87 73 63 57
39 38 38 38 38 38 38 39 39 40 41 41 43 45 46 48 51 54 57 60 62 64 66 68 69 71 72 74 76 80 85 90 96 102 105 105 100 90 78 65 54 50 47
37 37 37 37 37 38 39 39 40 40 40 41 44 45 47 51 54 57 59 61 63 65 67 69 70 71 73 77 81 87 92 98 104 107 104 96 82 69 58 49 44 41 40
34 35 35 36 37 38 39 39 38 39 40 42 44 47 50 53 56 58 61 63 65 67 68 69 71 73 77 82 88 94 100 104 105 100 90 76 62 52 45 41 39 36 35
32 33 34 36 37 36 36 36 36 37 40 43 46 49 53 55 57 60 62 64 66 68 69 70 73 77 83 88 94 100 103 101 94 83 69 57 49 44 39 37 35 34 34
31 32 33 33 32 32 32 33 35 38 42 45 49 51 54 56 59 61 63 65 66 68 70 73 78 83 90 95 99 101 96 86 74 63 55 47 43 40 38 36 34 32 33
28 28 28 28 29 30 32 34 37 41 44 47 50 52 54 57 60 62 63 64 66 69 73 78 84 90 95 100 99 93 80 67 57 51 46 43 41 40 38 37 36 35 32
24 25 26 27 28 30 33 36 40 43 46 48 50 53 55 58 60 61 63 64 67 72 78 84 90 95 99 97 89 76 61 52 47 44 43 42 40 40 40 40 39 38 35
22 23 25 27 29 32 35 39 41 43 46 48 51 54 56 58 59 60 63 68 72 77 83 89 94 96 93 84 71 58 49 43 41 40 40 39 40 40 40 40 40 39 37
20 23 25 28 31 34 37 39 41 44 46 49 52 54 56 56 58 62 67 72 77 82 88 93 94 89 78 66 54 46 41 39 39 38 38 39 39 39 39 38 38 38 38
21 24 27 29 32 35 37 39 42 44 47 49 51 52 54 57 61 66 71 76 82 87 91 91 84 73 61 51 43 39 38 37 36 36 36 36 36 36 36 35 34 34 35
22 25 28 30 33 35 37 40 42 45 47 48 49 51 55 60 64 69 74 80 85 89 87 78 66 56 47 39 36 35 34 33 33 33 33 33 34 33 33 31 31 30 30
24 27 30 32 34 36 39 41 43 45 45 46 49 53 58 63 68 73 79 84 87 84 74 62 51 43 37 34 33 33 32 32 32 32 32 32 32 32 31 30 29 28 27
27 29 31 33 35 37 40 41 42 43 45 48 52 57 62 67 72 78 84 86 82 72 59 47 39 34 32 31 30 30 31 31 31 32 32 32 31 31 30 29 29 27 25
29 30 32 34 36 38 39 39 41 45 49 53 58 63 68 73 78 83 84 80 69 56 44 35 30 29 28 27 27 28 29 30 31 32 31 31 31 30 29 28 27 25 23
29 31 33 35 36 36 37 40 44 48 53 58 63 67 72 78 82 83 78 67 53 42 32 27 24 24 25 25 26 27 29 31 31 31 31 31 30 29 28 26 25 22 19
30 33 34 34 35 37 40 44 48 52 57 62 66 71 77 82 82 76 65 50 38 29 23 20 21 22 23 24 25 27 29 30 31 31 31 31 30 29 27 25 23 20 16
32 32 32 34 37 41 44 48 52 57 62 66 71 76 80 80 73 63 49 36 26 20 17 17 18 20 22 23 26 27 29 31 31 31 31 30 29 28 26 24 21 17 14
30 31 33 37 41 45 48 52 57 61 66 71 77 81 81 73 61 47 34 23 16 13 13 15 17 19 21 23 26 28 29 31 32 32 31 30 29 27 25 22 18 14 11
30 33 37 41 45 49 52 57 61 66 71 77 81 81 74 61 46 33 21 12 8 8 10 13 15 18 20 23 25 28 30 31 32 32 32 30 28 26 23 19 15 12 10
33 37 41 45 49 52 57 61 66 72 77 82 81 73 60 46 32 19 9 4 3 6 8 11 14 17 20 23 25 28 29 31 32 32 31 29 26 24 21 18 15 12 10
36 40 44 48 52 57 62 67 72 78 82 81 73 60 45 30 17 7 2 1 3 6 8 11 14 17 20 23 26 28 30 32 33 33 32 30 27 25 22 19 16 14 11
40 44 48 52 57 62 67 73 79 83 81 72 59 45 29 15 5 3 4 4 5 6 9 12 14 17 20 23 26 28 30 32 34 34 33 32 30 27 24 22 19 16 13
43 48 52 57 62 67 73 79 82 80 71 58 43 27 13 3 6 7 7 6 5 7 9 12 15 17 20 23 25 27 29 31 33 34 34 32 31 29 26 24 21 18 15
Wind_Direction
240 244 250 255 260 263 265 267 269 271 275 278 280 283 284 285 287 289 292 293 295 296 297 299 299 300 301 302 302 303 303 303 303 303 303 303 303 302 301 301 300 299 298
238 242 248 254 259 262 265 268 271 274 279 281 283 285 286 288 290 292 294 296 297 298 300 301 302 303 303 304 305 305 305 305 305 305 305 305 304 303 303 302 301 299 298
237 242 249 255 259 263 266 270 273 277 281 283 285 286 288 290 291 293 296 297 299 301 302 303 304 305 305 306 306 306 306 306 306 306 306 306 305 305 304 303 301 298 297
237 243 250 255 260 265 269 272 276 279 282 284 286 288 289 291 293 295 298 300 302 303 304 305 306 306 307 307 307 307 307 307 307 307 307 307 307 306 304 302 300 298 297
238 245 252 259 264 268 271 273 277 280 282 284 287 288 291 293 296 298 300 302 304 305 305 306 307 308 308 309 309 309 308 308 308 308 309 308 308 306 304 302 300 297 297
242 250 257 262 265 268 271 274 277 279 282 285 287 290 293 296 299 301 303 304 305 306 306 307 308 309 309 309 310 309 309 309 309 309 309 309 308 306 304 302 299 297 296
246 253 258 261 265 268 271 273 276 280 283 286 290 293 296 299 301 303 304 305 306 307 308 309 309 310 310 310 310 311 311 310 310 310 310 310 309 306 304 302 300 299 299
250 254 259 262 264 266 270 274 278 282 286 289 293 297 299 301 302 304 305 306 307 309 309 310 310 311 311 311 312 312 312 311 310 309 310 309 308 305 304 303 301 301 303
249 252 256 259 263 268 272 276 281 286 290 293 297 299 300 302 303 305 306 308 309 310 310 310 311 312 312 312 313 313 313 311 309 309 309 308 307 305 304 304 303 303 304
247 252 257 261 266 271 277 282 287 291 294 296 298 300 301 303 305 307 308 309 310 310 311 312 313 313 314 314 315 315 313 311 309 308 308 308 307 306 306 306 305 304 304
250 256 262 268 275 281 285 289 292 294 296 298 300 301 303 305 307 309 310 311 312 312 313 313 314 315 315 316 316 315 313 311 309 308 308 306 305 305 305 305 304 304 304
260 268 275 281 285 288 291 293 295 296 298 300 302 304 306 308 310 311 312 312 313 314 315 316 316 316 317 317 316 315 314 313 312 311 309 307 306 304 304 304 303 303 304
277 282 286 289 291 292 294 295 297 299 301 303 305 307 309 311 312 312 313 314 315 316 317 317 317 317 318 318 318 317 317 316 316 315 314 312 309 307 305 304 303 302 303
287 290 292 293 294 295 297 299 300 302 304 306 308 310 311 312 313 313 314 315 317 317 318 318 318 318 319 320 320 321 321 321 321 321 320 318 316 313 310 308 305 302 302
293 294 295 296 297 298 300 302 304 305 307 309 310 311 312 313 314 316 317 318 318 319 318 318 318 319 321 323 323 324 325 325 325 325 326 325 323 319 316 314 312 308 304
297 298 298 299 301 302 304 305 307 308 309 310 311 312 314 316 318 319 319 319 319 319 319 319 320 321 324 326 327 328 329 329 328 327 327 327 326 324 321 318 315 311 307
300 301 302 303 304 305 307 308 310 311 312 313 314 315 317 319 320 321 321 320 319 319 319 320 323 326 330 332 334 334 334 333 331 330 329 329 329 327 325 323 320 315 310
303 304 305 306 307 308 310 311 312 313 314 315 316 318 319 320 321 321 321 319 318 319 321 324 329 333 337 339 339 339 339 338 336 335 334 333 331 330 329 327 325 320 314
305 306 307 308 309 311 312 313 314 315 316 317 318 319 320 321 321 321 320 318 318 319 324 331 336 340 343 344 345 344 343 343 342 341 339 338 336 335 333 332 329 325 320
308 309 310 310 312 313 314 315 316 317 317 318 319 320 321 321 321 320 319 318 318 322 330 338 343 347 349 350 350 349 349 349 348 346 344 343 342 341 339 336 334 331 328
310 311 312 313 315 316 317 317 318 318 319 320 320 321 321 321 320 318 316 316 318 327 339 347 352 355 357 356 355 354 354 354 353 351 349 347 346 345 343 341 342 343 344
313 314 315 317 318 318 319 319 320 320 320 321 321 322 321 320 318 316 314 313 324 342 352 359 3 4 3 2 1 360 359 359 358 356 355 354 353 351 351 352 355 0 5
316 317 318 319 319 320 320 321 321 321 321 322 322 321 320 318 316 313 308 312 351 5 9 10 10 9 8 7 7 7 6 6 5 4 3 2 1 2 4 8 12 18 26
317 318 319 320 321 322 322 322 322 322 322 322 322 321 319 315 311 300 255 108 46 34 25 19 16 13 11 11 12 12 13 14 14 13 13 13 14 16 19 23 27 32 37
319 320 321 322 323 323 324 324 324 323 323 322 322 320 317 311 288 179 145 111 75 50 33 23 18 15 14 14 14 15 16 17 19 19 20 21 23 25 28 30 33 37 43
321 322 323 324 325 325 325 325 324 324 323 323 322 320 314 268 163 149 134 109 79 48 29 20 16 14 13 13 14 16 17 19 21 22 24 25 27 29 31 33 35 39 46
Height
5678 5682 5685 5686 5687 5687 5687 5686 5685 5684 5682 5680 5678 5675 5672 5668 5664 5660 5656 5651 5646 5640 5633 5626 5619 5611 5603 5595 5586 5577 5567 5558 5551 5546 5532 5520 5506 5491 5477 5461 5445 5430 5417
5670 5674 5677 5679 5680 5679 5679 5678 5677 5676 5674 5671 5668 5665 5662 5658 5654 5649 5645 5639 5633 5626 5619 5611 5603 5595 5586 5577 5567 5558 5548 5538 5528 5522 5513 5497 5481 5462 5447 5431 5414 5399 5389
5663 5667 5670 5671 5672 5672 5671 5670 5669 5667 5665 5662 5659 5655 5652 5648 5643 5639 5633 5627 5620 5612 5604 5596 5587 5578 5569 5559 5549 5539 5529 5518 5506 5495 5486 5471 5454 5433 5417 5404 5390 5379 5371
5657 5660 5663 5664 5664 5664 5663 5662 5661 5658 5656 5653 5649 5646 5641 5637 5632 5627 5621 5614 5605 5597 5589 5580 5571 5561 5551 5542 5532 5521 5509 5497 5483 5468 5456 5441 5424 5406 5391 5382 5374 5365 5358
5651 5654 5656 5657 5657 5657 5656 5654 5652 5649 5646 5643 5640 5636 5631 5626 5621 5614 5607 5600 5591 5582 5573 5564 5555 5545 5535 5524 5512 5500 5486 5471 5456 5440 5426 5411 5397 5384 5374 5366 5361 5355 5348
5646 5648 5650 5650 5650 5649 5648 5646 5643 5640 5637 5634 5630 5625 5620 5615 5608 5601 5594 5585 5576 5567 5558 5549 5539 5529 5518 5506 5492 5477 5460 5443 5427 5412 5398 5386 5376 5367 5360 5354 5349 5345 5340
5640 5642 5642 5642 5642 5641 5639 5637 5634 5631 5629 5625 5620 5615 5609 5603 5596 5588 5580 5571 5562 5552 5543 5533 5523 5512 5499 5486 5472 5455 5436 5416 5399 5387 5377 5368 5361 5354 5350 5345 5339 5334 5328
5634 5635 5635 5635 5633 5632 5630 5628 5626 5623 5619 5615 5610 5604 5598 5591 5583 5576 5567 5558 5548 5538 5528 5517 5506 5493 5478 5464 5450 5433 5413 5395 5381 5370 5362 5356 5349 5343 5339 5334 5329 5325 5320
5627 5628 5627 5627 5626 5624 5623 5621 5618 5614 5610 5605 5599 5593 5586 5579 5571 5562 5554 5545 5535 5524 5513 5500 5487 5474 5459 5442 5426 5410 5394 5378 5366 5357 5351 5345 5339 5333 5327 5323 5318 5314 5310
5621 5621 5621 5620 5619 5617 5615 5612 5609 5605 5600 5594 5589 5582 5575 5567 5559 5550 5541 5532 5523 5512 5498 5483 5468 5452 5435 5417 5401 5388 5377 5366 5357 5349 5342 5336 5330 5324 5318 5312 5307 5302 5299
5615 5615 5615 5614 5612 5610 5607 5604 5599 5595 5590 5584 5578 5571 5563 5555 5547 5537 5527 5517 5506 5493 5479 5464 5448 5430 5413 5396 5383 5372 5363 5356 5348 5341 5334 5327 5321 5315 5309 5303 5297 5291 5287
5610 5610 5609 5607 5605 5602 5598 5594 5590 5585 5579 5573 5566 5558 5551 5543 5534 5524 5513 5500 5488 5474 5459 5443 5426 5409 5394 5381 5371 5362 5354 5346 5340 5333 5326 5319 5313 5306 5300 5294 5288 5282 5277
5605 5604 5602 5600 5597 5594 5590 5585 5580 5575 5569 5562 5555 5547 5539 5530 5521 5510 5498 5484 5470 5455 5439 5421 5405 5391 5379 5369 5361 5354 5347 5339 5332 5325 5318 5311 5304 5297 5292 5286 5280 5274 5269
5599 5597 5595 5592 5589 5585 5580 5576 5570 5564 5558 5551 5544 5536 5527 5518 5507 5496 5483 5469 5454 5438 5420 5404 5390 5378 5369 5362 5354 5347 5340 5333 5326 5319 5312 5304 5297 5290 5283 5278 5273 5268 5263
5593 5591 5588 5584 5580 5576 5571 5566 5560 5554 5547 5541 5533 5525 5515 5505 5493 5480 5466 5451 5436 5420 5404 5391 5380 5371 5363 5355 5348 5341 5335 5328 5320 5313 5306 5298 5291 5283 5277 5271 5265 5260 5256
5586 5583 5579 5576 5571 5567 5562 5556 5550 5544 5537 5529 5521 5511 5500 5489 5477 5463 5447 5431 5416 5403 5391 5381 5372 5364 5358 5351 5344 5337 5330 5323 5315 5308 5300 5293 5286 5278 5271 5265 5259 5254 5249
5579 5575 5571 5567 5563 5558 5552 5546 5540 5533 5525 5516 5507 5496 5484 5472 5460 5446 5430 5414 5401 5391 5381 5373 5366 5360 5353 5346 5340 5333 5326 5319 5311 5304 5296 5288 5281 5273 5266 5260 5253 5248 5243
5571 5567 5564 5559 5554 5549 5543 5537 5530 5522 5513 5502 5492 5481 5468 5455 5442 5428 5414 5400 5389 5380 5374 5368 5362 5356 5350 5343 5337 5330 5323 5315 5308 5300 5291 5284 5276 5269 5262 5255 5249 5243 5239
5564 5560 5555 5551 5546 5540 5534 5527 5519 5510 5501 5491 5479 5467 5453 5438 5423 5410 5398 5388 5380 5374 5369 5364 5359 5353 5347 5341 5335 5328 5320 5313 5304 5296 5288 5280 5272 5265 5257 5251 5245 5240 5237
5556 5552 5547 5542 5537 5531 5524 5516 5507 5498 5487 5476 5464 5452 5438 5422 5407 5394 5385 5378 5373 5369 5365 5361 5356 5351 5345 5339 5332 5325 5318 5310 5302 5293 5285 5277 5269 5261 5254 5248 5243 5238 5235
5548 5544 5539 5534 5528 5521 5513 5505 5495 5484 5473 5460 5447 5433 5420 5406 5393 5383 5376 5372 5368 5365 5362 5358 5354 5349 5343 5337 5331 5324 5316 5308 5300 5291 5283 5274 5266 5259 5252 5246 5241 5238 5235
5541 5536 5531 5525 5518 5511 5502 5492 5482 5470 5457 5444 5429 5414 5400 5389 5380 5374 5370 5367 5365 5363 5360 5357 5353 5348 5343 5337 5331 5324 5316 5308 5300 5291 5282 5273 5265 5258 5252 5246 5242 5239 5237
5534 5528 5523 5516 5508 5499 5489 5479 5467 5454 5440 5425 5410 5396 5384 5376 5370 5367 5365 5364 5363 5362 5359 5356 5352 5348 5343 5338 5331 5325 5317 5309 5301 5292 5283 5274 5267 5260 5253 5248 5244 5241 5239
5526 5520 5513 5505 5496 5486 5475 5463 5450 5436 5421 5405 5391 5380 5371 5366 5363 5362 5362 5363 5362 5361 5358 5356 5352 5348 5343 5338 5332 5325 5318 5311 5302 5294 5286 5277 5269 5262 5256 5252 5248 5245 5243
5518 5511 5503 5494 5484 5473 5460 5447 5432 5417 5401 5387 5375 5367 5361 5359 5359 5360 5361 5362 5361 5360 5358 5355 5352 5348 5344 5338 5333 5327 5320 5313 5305 5297 5289 5281 5274 5267 5262 5257 5253 5250 5248
5509 5501 5492 5482 5471 5458 5445 5430 5414 5398 5383 5372 5363 5358 5356 5356 5358 5360 5361 5362 5361 5360 5358 5356 5353 5349 5344 5340 5335 5329 5323 5316 5309 5302 5294 5287 5280 5274 5268 5264 5260 5256 5253